Weather History for St. Louis, MO

Change the Weather History Date:

Monday, June 24, 2013

  Actual Average Record
Temperature  
Mean Temperature 81 °F 78 °F  
Max Temperature 93 °F 88 °F 102 °F (1988)
Min Temperature 69 °F 69 °F 48 °F (1974)
Degree Days  
Heating Degree Days 0 0  
Month to date heating degree days 1 3  
Since 1 June heating degree days 1 3  
Since 1 July heating degree days 4488 4533  
Cooling Degree Days 16 13  
Month to date cooling degree days 247 248  
Year to date cooling degree days 458 422  
Since 1 June cooling degree days 247 248  
Growing Degree Days 31 (Base 50)    
Moisture  
Dew Point 68 °F    
Average Humidity 67    
Maximum Humidity 90    
Minimum Humidity 44    
Precipitation  
Precipitation 0.00 in 0.14 in 2.94 in (2000)
Month to date precipitation 4.07 3.53  
Year to date precipitation 28.21 19.90  
Snow  
Snow 0.00 in 0.00 in 0.00 in (2013)
Month to date snowfall 0.0 0.0  
Since 1 June snowfall 0.0 0.0  
Since 1 July snowfall 27.9 17.7  
Snow Depth 0.00 in    
Sea Level Pressure  
Sea Level Pressure 30.02 in    
Wind  
Wind Speed 7 mph (South)    
Max Wind Speed 16 mph    
Max Gust Speed 24 mph    
Visibility 10 miles    
Events      
T = Trace of Precipitation, MM = Missing Value Source: NWS Daily Summary

Daily Weather History Graph

Daily Weather History Graph

Search for Another Location

Airport:

Trip Planner

Search our weather history database for the weather conditions in past years. The results will help you decide how hot, cold, wet, or windy it might be!

Date:

Astronomy

Jun. 24, 2013 Rise Set
Actual Time 5:37 AM CDT 8:30 PM CDT
Civil Twilight 5:05 AM CDT 9:02 PM CDT
Nautical Twilight 4:25 AM CDT 9:42 PM CDT
Astronomical Twilight 3:39 AM CDT 10:28 PM CDT
Moon 9:34 PM CDT (6/24) 7:04 AM CDT (6/24)
Length of Visible Light 15h 56m
Length of Day
14h 52m
Full, 98% of the Moon is Illuminated
Jun 24
Full
Jun 29
Last Quarter
Jul 8
New
Jul 15
First Quarter
Jul 22
Full

Hourly Weather History & Observations

Time (CDT) Temp. Heat Index Dew Point Humidity Pressure Visibility Wind Dir Wind Speed Gust Speed Precip Events Conditions
12:51 AM 70.0 °F - 66.0 °F 87% 30.12 in 10.0 mi ESE 5.8 mph - N/A   Mostly Cloudy
1:51 AM 70.0 °F - 66.0 °F 87% 30.11 in 10.0 mi South 4.6 mph - N/A   Mostly Cloudy
2:51 AM 70.0 °F - 64.9 °F 84% 30.11 in 10.0 mi SE 8.1 mph - N/A   Scattered Clouds
3:51 AM 70.0 °F - 66.0 °F 87% 30.10 in 10.0 mi SSE 4.6 mph - N/A   Partly Cloudy
4:51 AM 70.0 °F - 66.0 °F 87% 30.10 in 10.0 mi Calm Calm - N/A   Mostly Cloudy
5:51 AM 70.0 °F - 66.0 °F 87% 30.12 in 10.0 mi Calm Calm - N/A   Mostly Cloudy
6:51 AM 71.1 °F - 66.9 °F 87% 30.04 in 10.0 mi South 3.5 mph - N/A   Mostly Cloudy
7:51 AM 73.9 °F - 68.0 °F 82% 30.05 in 9.0 mi SE 4.6 mph - N/A   Mostly Cloudy
8:51 AM 77.0 °F - 69.1 °F 76% 30.06 in 10.0 mi SE 4.6 mph - N/A   Scattered Clouds
9:51 AM 82.9 °F 87.5 °F 71.1 °F 67% 30.05 in 10.0 mi SW 8.1 mph - N/A   Partly Cloudy
10:51 AM 84.9 °F 90.1 °F 71.1 °F 63% 30.04 in 10.0 mi SSW 6.9 mph - N/A   Partly Cloudy
11:51 AM 88.0 °F 94.7 °F 72.0 °F 59% 30.03 in 10.0 mi Variable 3.5 mph - N/A   Partly Cloudy
12:51 PM 90.0 °F 96.4 °F 71.1 °F 54% 30.01 in 10.0 mi SSW 9.2 mph 16.1 mph N/A   Partly Cloudy
1:51 PM 91.9 °F 95.9 °F 68.0 °F 45% 29.98 in 10.0 mi SW 10.4 mph 19.6 mph N/A   Partly Cloudy
2:51 PM 93.0 °F 97.9 °F 69.1 °F 45% 29.97 in 10.0 mi SSW 8.1 mph - N/A   Scattered Clouds
3:51 PM 91.9 °F 95.4 °F 66.9 °F 44% 29.97 in 10.0 mi South 12.7 mph - N/A   Scattered Clouds
4:51 PM 91.9 °F 95.4 °F 66.9 °F 44% 29.95 in 10.0 mi SSW 9.2 mph - N/A   Scattered Clouds
5:51 PM 91.0 °F 95.2 °F 68.0 °F 47% 29.96 in 10.0 mi WSW 10.4 mph - N/A   Scattered Clouds
6:51 PM 90.0 °F 93.6 °F 68.0 °F 48% 29.94 in 10.0 mi South 8.1 mph - N/A   Mostly Cloudy
7:51 PM 88.0 °F 92.1 °F 69.1 °F 53% 29.92 in 10.0 mi South 10.4 mph - N/A   Scattered Clouds
8:51 PM 87.1 °F 90.6 °F 68.0 °F 53% 29.93 in 10.0 mi South 9.2 mph - N/A   Mostly Cloudy
9:51 PM 84.9 °F 89.4 °F 70.0 °F 61% 29.93 in 10.0 mi South 10.4 mph - N/A   Mostly Cloudy
10:51 PM 84.0 °F 89.0 °F 71.1 °F 65% 29.91 in 10.0 mi South 13.8 mph - N/A   Mostly Cloudy
11:51 PM 82.9 °F 86.5 °F 69.1 °F 63% 29.91 in 10.0 mi South 9.2 mph - N/A   Mostly Cloudy